Location: Unspecified
(0.0000°N, 0.0000°E)
Time: 23:01:46
(UTC+02:00)

PROBA 2 - Visible Passes

Search period start: 01 September 2014 00:00
Search period end: 11 September 2014 00:00
Orbit: 708 x 726 km, 98.3° (Epoch: 31 August)

Date Brightness Start Highest point End Pass type
(mag) Time Alt. Az. Time Alt. Az. Time Alt. Az.
01 Sep ? 20:43:06 10° N 20:47:36 42° WNW 20:52:07 10° SSW visible
02 Sep ? 07:29:53 10° SE 07:33:26 20° ENE 07:36:58 10° NNE visible
03 Sep ? 20:39:33 10° N 20:44:08 47° WNW 20:48:43 10° SSW visible
04 Sep ? 07:26:39 10° ESE 07:29:57 19° ENE 07:33:16 10° NE visible
04 Sep ? 21:29:54 10° WNW 21:31:15 11° WNW 21:32:36 10° W visible
05 Sep ? 20:36:01 10° N 20:40:39 52° WNW 20:45:18 10° SSW visible
06 Sep ? 07:23:27 10° ESE 07:26:29 17° ENE 07:29:31 10° NE visible
06 Sep ? 21:25:47 10° NW 21:27:46 13° WNW 21:29:46 10° WSW visible
07 Sep ? 20:32:29 10° N 20:37:10 58° WNW 20:41:52 10° SSW visible
08 Sep ? 07:20:18 10° ESE 07:23:01 15° ENE 07:25:43 10° NE visible
08 Sep ? 21:21:51 10° NW 21:24:18 14° WNW 21:26:44 10° WSW visible
09 Sep ? 20:28:58 10° N 20:33:41 65° WNW 20:38:25 10° SSW visible
10 Sep ? 07:17:13 10° ESE 07:19:32 13° ENE 07:21:52 10° NE visible
10 Sep ? 21:18:01 10° NW 21:20:49 16° WNW 21:23:37 10° WSW visible
